カタログに戻る

COSMOS 374 DEB

運用中LEO
NORAD 18517·DEBRIS·🇷🇺 Russia

打ち上げ Oct 23, 1970 から Baikonur Cosmodrome

Loading…

次のパス (今後24時間)

TLE

最新Source: Space-Track

元期: Sep 14, 2026, 07:27 UTC

1 18517U 70089DD  26257.31086865  .00003980  00000-0  53361-3 0  9996
2 18517  62.3820 159.8934 0258014 217.3772 140.9112 14.60484966886999

AllMySatでCOSMOS 374 DEBをリアルタイム追跡

Download on the App Store